TimeCST,TemperatureF,Dew PointF,Humidity,Sea Level PressureIn,VisibilityMPH,Wind Direction,Wind SpeedMPH,Gust SpeedMPH,PrecipitationIn,Events,Conditions,WindDirDegrees,DateUTC
12:15 AM,34.2,30.4,86,30.22,10.0,Calm,Calm,-,N/A,,Overcast,0,2012-11-04 05:15:00
12:35 AM,33.8,30.7,89,30.22,10.0,NNE,3.5,-,N/A,,Overcast,30,2012-11-04 05:35:00
12:55 AM,34.2,29.7,84,30.22,10.0,Calm,Calm,-,N/A,,Mostly Cloudy,0,2012-11-04 05:55:00
1:15 AM,33.3,29.8,87,30.23,10.0,NE,4.6,-,N/A,,Mostly Cloudy,40,2012-11-04 06:15:00
1:35 AM,32.0,29.7,91,30.23,10.0,North,3.5,-,N/A,,Scattered Clouds,360,2012-11-04 06:35:00
1:55 AM,32.7,29.7,88,30.24,10.0,Calm,Calm,-,N/A,,Scattered Clouds,0,2012-11-04 06:55:00
1:15 AM,33.3,29.3,85,30.24,10.0,Calm,Calm,-,N/A,,Mostly Cloudy,0,2012-11-04 07:15:00
1:35 AM,32.5,30.2,91,30.24,10.0,Calm,Calm,-,N/A,,Overcast,0,2012-11-04 07:35:00
1:55 AM,33.1,31.1,92,30.24,10.0,Calm,Calm,-,N/A,,Overcast,0,2012-11-04 07:55:00
2:15 AM,32.7,30.4,91,30.23,10.0,Calm,Calm,-,N/A,,Overcast,0,2012-11-04 08:15:00
2:35 AM,33.3,31.5,93,30.23,10.0,Calm,Calm,-,N/A,,Overcast,0,2012-11-04 08:35:00
2:55 AM,33.4,31.1,91,30.23,10.0,Calm,Calm,-,N/A,,Mostly Cloudy,0,2012-11-04 08:55:00
3:15 AM,32.9,30.2,90,30.23,10.0,Calm,Calm,-,N/A,,Mostly Cloudy,0,2012-11-04 09:15:00
3:35 AM,32.5,30.9,94,30.23,10.0,Calm,Calm,-,N/A,,Overcast,0,2012-11-04 09:35:00
3:55 AM,33.6,31.1,90,30.24,10.0,Calm,Calm,-,N/A,,Mostly Cloudy,0,2012-11-04 09:55:00
4:15 AM,34.0,30.0,85,30.24,10.0,Calm,Calm,-,N/A,,Scattered Clouds,0,2012-11-04 10:15:00
4:35 AM,33.4,30.2,88,30.24,10.0,Calm,Calm,-,N/A,,Scattered Clouds,0,2012-11-04 10:35:00
4:55 AM,32.9,30.2,90,30.24,10.0,NW,3.5,-,N/A,,Mostly Cloudy,320,2012-11-04 10:55:00
5:15 AM,32.5,29.8,90,30.24,10.0,Calm,Calm,-,N/A,,Mostly Cloudy,0,2012-11-04 11:15:00
5:35 AM,32.0,30.2,93,30.24,10.0,Calm,Calm,-,N/A,,Mostly Cloudy,0,2012-11-04 11:35:00
5:55 AM,31.8,30.0,93,30.24,10.0,Calm,Calm,-,N/A,,Mostly Cloudy,0,2012-11-04 11:55:00
6:15 AM,31.8,30.0,93,30.24,10.0,Calm,Calm,-,N/A,,Mostly Cloudy,0,2012-11-04 12:15:00
6:35 AM,32.0,30.9,96,30.25,10.0,Calm,Calm,-,N/A,,Overcast,0,2012-11-04 12:35:00
6:55 AM,32.9,31.6,95,30.25,10.0,Calm,Calm,-,N/A,,Overcast,0,2012-11-04 12:55:00
7:15 AM,33.4,32.0,94,30.25,10.0,Calm,Calm,-,N/A,,Overcast,0,2012-11-04 13:15:00
7:35 AM,34.7,32.0,90,30.25,10.0,Calm,Calm,-,N/A,,Mostly Cloudy,0,2012-11-04 13:35:00
7:55 AM,35.2,32.2,89,30.25,10.0,Calm,Calm,-,N/A,,Scattered Clouds,0,2012-11-04 13:55:00
8:15 AM,36.3,32.2,85,30.26,10.0,Calm,Calm,-,N/A,,Mostly Cloudy,0,2012-11-04 14:15:00
8:35 AM,37.4,32.5,83,30.26,10.0,North,3.5,-,N/A,,Scattered Clouds,360,2012-11-04 14:35:00
8:55 AM,38.5,32.2,78,30.26,10.0,West,3.5,-,N/A,,Scattered Clouds,280,2012-11-04 14:55:00
9:15 AM,39.2,33.1,79,30.26,10.0,Calm,Calm,-,N/A,,Mostly Cloudy,0,2012-11-04 15:15:00
9:35 AM,40.3,32.5,74,30.25,10.0,Calm,Calm,-,N/A,,Overcast,0,2012-11-04 15:35:00
9:55 AM,41.4,33.1,72,30.25,10.0,Calm,Calm,-,N/A,,Overcast,0,2012-11-04 15:55:00
10:15 AM,43.5,33.6,68,30.25,10.0,WSW,3.5,-,N/A,,Scattered Clouds,250,2012-11-04 16:15:00
10:35 AM,44.6,32.7,63,30.24,10.0,WSW,3.5,-,N/A,,Mostly Cloudy,250,2012-11-04 16:35:00
10:55 AM,44.2,32.2,63,30.24,10.0,WNW,3.5,-,N/A,,Overcast,290,2012-11-04 16:55:00
11:15 AM,46.8,33.1,59,30.24,10.0,WSW,4.6,-,N/A,,Overcast,250,2012-11-04 17:15:00
11:35 AM,46.6,32.9,59,30.24,10.0,WSW,3.5,-,N/A,,Overcast,240,2012-11-04 17:35:00
11:55 AM,45.9,32.4,59,30.23,10.0,WSW,3.5,-,N/A,,Overcast,250,2012-11-04 17:55:00
12:15 PM,47.5,33.1,57,30.22,10.0,SW,3.5,-,N/A,,Scattered Clouds,230,2012-11-04 18:15:00
12:35 PM,47.7,32.0,55,30.21,10.0,Calm,Calm,-,N/A,,Clear,0,2012-11-04 18:35:00
12:55 PM,48.2,31.6,53,30.21,10.0,SW,3.5,-,N/A,,Clear,220,2012-11-04 18:55:00
1:15 PM,48.6,32.4,54,30.20,10.0,Calm,Calm,-,N/A,,Clear,0,2012-11-04 19:15:00
1:35 PM,48.4,32.5,54,30.20,10.0,SW,4.6,-,N/A,,Mostly Cloudy,230,2012-11-04 19:35:00
1:55 PM,48.2,32.7,55,30.19,10.0,SW,4.6,-,N/A,,Overcast,230,2012-11-04 19:55:00
2:15 PM,46.8,33.1,59,30.19,10.0,SW,3.5,-,N/A,,Scattered Clouds,230,2012-11-04 20:15:00
2:35 PM,46.4,32.7,59,30.18,10.0,Calm,Calm,-,N/A,,Clear,0,2012-11-04 20:35:00
2:55 PM,46.8,32.5,58,30.18,10.0,Calm,Calm,-,N/A,,Mostly Cloudy,0,2012-11-04 20:55:00
3:15 PM,47.3,32.4,56,30.18,10.0,Calm,Calm,-,N/A,,Overcast,0,2012-11-04 21:15:00
3:35 PM,46.9,32.4,57,30.18,10.0,Calm,Calm,-,N/A,,Overcast,0,2012-11-04 21:35:00
3:55 PM,46.9,32.0,56,30.18,10.0,Calm,Calm,-,N/A,,Overcast,0,2012-11-04 21:55:00
4:15 PM,46.8,32.0,57,30.17,10.0,Calm,Calm,-,N/A,,Overcast,0,2012-11-04 22:15:00
4:35 PM,46.4,32.2,58,30.17,10.0,Calm,Calm,-,N/A,,Overcast,0,2012-11-04 22:35:00
4:55 PM,45.7,32.9,61,30.17,10.0,Calm,Calm,-,N/A,,Overcast,0,2012-11-04 22:55:00
5:15 PM,45.5,33.8,64,30.18,10.0,Calm,Calm,-,N/A,,Overcast,0,2012-11-04 23:15:00
5:35 PM,45.7,33.6,63,30.18,10.0,Calm,Calm,-,N/A,,Overcast,0,2012-11-04 23:35:00
5:55 PM,45.7,32.5,60,30.18,10.0,Calm,Calm,-,N/A,,Overcast,0,2012-11-04 23:55:00
6:15 PM,44.6,33.8,66,30.18,10.0,Calm,Calm,-,N/A,,Overcast,0,2012-11-05 00:15:00
6:35 PM,44.6,34.2,67,30.19,10.0,Calm,Calm,-,N/A,,Overcast,0,2012-11-05 00:35:00
6:55 PM,43.5,33.8,69,30.19,10.0,East,3.5,-,N/A,,Overcast,80,2012-11-05 00:55:00
7:15 PM,43.5,33.3,67,30.18,10.0,East,3.5,-,N/A,,Overcast,90,2012-11-05 01:15:00
7:35 PM,41.9,34.0,73,30.18,10.0,East,3.5,-,N/A,,Overcast,90,2012-11-05 01:35:00
7:55 PM,42.1,34.0,73,30.18,10.0,East,3.5,-,N/A,,Overcast,100,2012-11-05 01:55:00
8:15 PM,42.8,34.0,71,30.18,10.0,Calm,Calm,-,N/A,,Overcast,0,2012-11-05 02:15:00
8:35 PM,42.4,34.7,74,30.19,10.0,Calm,Calm,-,N/A,,Overcast,0,2012-11-05 02:35:00
8:55 PM,42.8,34.2,72,30.19,10.0,Calm,Calm,-,N/A,,Overcast,0,2012-11-05 02:55:00
9:15 PM,42.1,34.7,75,30.19,10.0,Calm,Calm,-,N/A,,Overcast,0,2012-11-05 03:15:00
9:35 PM,42.8,34.2,72,30.19,10.0,Calm,Calm,-,N/A,,Overcast,0,2012-11-05 03:35:00
9:55 PM,42.8,34.0,71,30.19,10.0,Calm,Calm,-,N/A,,Overcast,0,2012-11-05 03:55:00
10:15 PM,43.0,33.8,70,30.19,10.0,Calm,Calm,-,N/A,,Overcast,0,2012-11-05 04:15:00
10:35 PM,42.8,32.9,68,30.19,10.0,East,5.8,-,N/A,,Overcast,90,2012-11-05 04:35:00